Weather in Eltsovka

Russia / Altai Krai     53°15′18″N   86°15′40″E
temp.,
°C
wind,
m/s
gust,
m/s
humid.,
%
clouds,
%
prec.,
mm/h
press.,
hPa
HPBL,
m
14 may, fri
fri1401:00+9nnw117852 1.2 101310
04:00+8se118479 0.0 101310
07:00+10ssw117992 0.0 101543
10:00+15wnw235821 0.0 1015686
13:00+19nw444552 0.0 10161646
16:00+16nnw375496 0.0 1017284
19:00+17nnw464463 0.0 10191130
22:00+9nne2262100 0.0 102311
15 may, sat
sat1501:00+9nnw0160100 0.0 102410
04:00+7sw006498 0.0 102510
07:00+9ssw125993 0.0 102579
10:00+14sw344298 0.0 1025815
13:00+18wsw343524 0.0 10241324
16:00+20wsw4535100 0.0 10221635
19:00+19wsw36455 0.0 1021629
22:00+13ssw33615 0.0 102138
16 may, sun
sun1601:00+11s356731 0.0 102071
04:00+10ssw3571100 0.0 101978
07:00+13ssw41265100 0.0 1018331
10:00+17sw6105199 0.0 1017586
13:00+22wsw794127 0.0 10151426
16:00+25wsw793961 0.0 10132112
19:00+19ssw8126796 0.8 1011475
22:00+15ssw5137274 2.6 1011241
17 may, mon
mon1701:00+15w51281100 4.1 1011332
04:00+14wsw41294100 1.8 1011505
07:00+14w4796100 3.6 1012427
10:00+14wnw3595100 1.1 1013402
13:00+17wnw347285 1.5 10151018
16:00+19nw445996 0.1 10151379
19:00+18w3563100 0.2 1015580
22:00+13w36805 0.0 1016105
18 may, tue
tue1801:00+10w23875 0.0 101646
04:00+10ssw378699 0.0 1014120
07:00+12sw51386100 0.0 1013421
10:00+18sw7136582 0.1 1010849
13:00+18wsw51169100 0.3 1009783
16:00+23wnw7125022 0.1 10072439
19:00+18n257898 2.3 1007160
22:00+15e1181100 0.1 100711